Regional Weather Roundup
Issued by NWS Bismarck, ND

Home | Current Version | Previous Version | Text Only | Print | Product List | Glossary On
Versions: 1 2 3 4 5 6 7 8 9 10 11 12 13 14 15 16 17 18 19 20 21 22 23 24 25 26 27 28 29 30 31 32 33 34 35 36 37 38 39 40 41 42 43 44 45 46 47 48 49 50
000
ASUS43 KBIS 270720
RWRBIS

NWR BROADCAST TEXT
NATIONAL WEATHER SERVICE BISMARCK ND
100 AM CST FRI FEB 27 2015

NOTE: "FAIR" INDICATES FEW OR NO CLOUDS BELOW 12,000 FEET WITH NO
SIGNIFICANT WEATHER AND/OR OBSTRUCTIONS TO VISIBILITY.


CITY           SKY/WX    TMP DP  RH WIND       PRES   REMARKS
WILLISTON      PTCLDY    -8 -12  83 CALM      30.39F
MINOT          PTCLDY   -10 -17  71 SW6       30.42F WCI -23
MINOT AFB      PTCLDY   -12 -18  74 W8        30.42F WCI -28
BISMARCK       CLEAR     -8 -13  78 SW3       30.48F
DICKINSON      CLEAR     -4 -10  75 S8        30.33F WCI -19
GARRISON         N/A    -11 -16  78 CALM      30.42F
HETTINGER ARPT CLEAR     -7 -11  83 CALM      30.37F
JAMESTOWN      PTCLDY    -8 -14  74 W8        30.45F WCI -24
BEACH          FAIR      -2  -6  84 S9        30.32F WCI -18
CARRINGTON     FAIR      -9 -13  84 MISG      30.45S
CROSBY         FAIR      -9 -13  84 S13       30.38F WCI -30
HARVEY         FAIR     -15 -18  84 W9        30.45F WCI -33
HAZEN          FAIR     -11 -18  70 CALM      30.45F
LINTON         FAIR      -9 -13  84 CALM      30.47F
MANDAN         FAIR      -9 -13  84 SW6       30.45S WCI -23
OAKES            N/A     -8 -11  84 W5        30.49S WCI -19
RUGBY          FAIR     -13 -18  77 W7        30.44S WCI -29
TIOGA          FAIR     -18 -20  91 CALM      30.39F
WATFORD CITY   FAIR     -11 -17  77 CALM      30.37F
$$

CITY           SKY/WX    TMP DP  RH WIND       PRES   REMARKS
GRAND FORKS    PTCLDY    -9 -14  78 W7        30.47F WCI -24
GRAND FORKS AF PTCLDY    -6 -14  69 NW7       30.47S WCI -21
DEVILS LAKE    CLEAR    N/A N/A N/A MISG        N/A
FARGO          CLEAR     -6 -13  71 W7        30.50F WCI -20
CANDO          FAIR     -13 -18  77 W9        30.43S WCI -31
CAVALIER       FAIR       0  -8  71 W9        30.43F WCI -16
GWINNER        SUNNY     -4 -13  65 W8        30.49F WCI -19
ROLLA          FAIR      -2 -13  60 NW9       30.37F WCI -18
WALHALLA         N/A      0  -9  65 W7        30.43F WCI -13
$$

CITY           SKY/WX    TMP DP  RH WIND       PRES   REMARKS
ABERDEEN       CLEAR    -13 -18  78 SW7       30.52F WCI -29
MOBRIDGE       PTCLDY    -9 -14  78 N5        30.44F WCI -20
BUFFALO          N/A     -1  -9  68 S6        30.24F WCI -13
RAPID CITY     CLEAR    -10 -15  78 CALM      30.33F
GLASGOW        CLEAR      1  -6  72 E12       30.27F WCI -16
SIDNEY         CLEAR     -4 -15  59 CALM      30.40F
WOLF POINT     CLEAR      1  -6  72 NE3       30.35F
GLENDIVE       CLEAR      1  -6  71 S6        30.32F WCI -10
MILES CITY     CLEAR     -1  -6  79 S7        30.29F WCI -14
BAKER          CLEAR     -2  -7  79 CALM      30.31F
$$

CITY           SKY/WX    TMP DP  RH WIND       PRES   REMARKS
BILLINGS       CLEAR      4  -1  80 NE3       30.13F
GREAT FALLS    PTCLDY    11   4  73 S8        29.99F WCI  -1
REGINA         CLEAR    -13 -18  77 SE9       30.33F WCI -31
ESTEVAN        CLEAR    -15 -20  76 S7        30.38F WCI -31
$$



USA.gov is the U.S. government's official web portal to all federal, state and local government web resources and services.